ABS-2

Last updated on Sat Sep 05 2026 00:03:03 GMT+0000 (Coordinated Universal Time)

1 39508U 14006A 26247.61075338 -.00000093 00000+0 00000+0 0 9991 2 39508 0.0511 275.1814 0003153 255.7550 107.5878 1.00271273 46079
UTC large
Height (km)
Speed (km/s)
/
Latitude / Longitude
Inclination (degrees)
Orbital Period (minutes)
Azimuth
Elevation
Range (km)
Doppler Factor

Next 0 passes for location: London (51.5072 / 0.1276)

No passes found over London.
ABS-2